This demonstration page uses our WeatherBlox Daily Observations layout. Learn more.

Left ArrowRight Arrow

Hourly Observations for September 11, 2019

Temp ( °F °C ) Dew Point ( °F °C ) Humidity (%) Winds ( mph kmh ) Pressure ( in mb ) Visibility ( mi km ) Precip ( " mm )
12:59 am 00:59 Clear 70 21.1 69 20.6 97 97 Calm 30.29 1026 9 14 0.00 0.00
1:59 am 01:59 Mostly Clear 69 20.6 69 20.6 100 100 Calm 30.29 1026 9 14 0.00 0.00
2:59 am 02:59 Mostly Cloudy 68 20 68 20 100 100 Calm 30.28 1025 8 13 0.00 0.00
3:26 am 03:26 Clear with Mist and Fog 67 19.4 67 19.4 100 100 Calm 30.27 1025 2 2 0.00 0.00
3:39 am 03:39 Clear with Mist and Fog 68 20 68 20 100 100 Calm 30.28 1025 6 10 0.00 0.00
3:59 am 03:59 Partly Cloudy with Mist and Fog 67 19.4 67 19.4 100 100 Calm 30.27 1025 6 10 0.00 0.00
4:59 am 04:59 Partly Cloudy with Mist and Fog 67 19.4 67 19.4 100 100 Calm 30.27 1025 6 10 0.00 0.00
5:59 am 05:59 Partly Cloudy with Mist and Fog 67 19.4 67 19.4 100 100 Calm 30.26 1025 4 6 0.00 0.00
6:59 am 06:59 Partly Cloudy 67 19.4 67 19.4 100 100 Calm 30.28 1025 8 13 0.00 0.00
7:59 am 07:59 Partly Cloudy 72 22.2 71 21.7 97 97 Calm 30.29 1026 8 13 0.00 0.00
8:59 am 08:59 Partly Cloudy 75 23.9 72 22.2 90 90 SSW 5 7 30.29 1026 10 16 0.00 0.00
9:59 am 09:59 Partly Cloudy 78 25.6 70 21.1 76 76 VRB 3 6 30.28 1026 10 16 0.00 0.00
10:59 am 10:59 Partly Cloudy 81 27.2 70 21.1 69 69 VRB 3 6 30.27 1025 10 16 0.00 0.00
11:59 am 11:59 Partly Cloudy 82 27.8 69 20.6 65 65 VRB 6 9 30.25 1024 10 16 0.00 0.00
12:59 pm 12:59 Partly Cloudy 85 29.4 66 18.9 53 53 VRB 3 6 30.22 1023 10 16 0.00 0.00
1:59 pm 13:59 Mostly Sunny 86 30 68 20 55 55 SW 6 9 30.19 1022 10 16 0.00 0.00
2:59 pm 14:59 Sunny 86 30 72 22.2 63 63 E 7 11 30.17 1022 10 16 0.00 0.00
3:59 pm 15:59 Mostly Sunny 85 29.4 72 22.2 65 65 ENE 5 7 30.16 1021 10 16 0.00 0.00
4:59 pm 16:59 Mostly Sunny 86 30 72 22.2 63 63 E 3 6 30.13 1020 10 16 0.00 0.00
5:59 pm 17:59 Mostly Sunny 86 30 70 21.1 59 59 SW 6 9 30.12 1020 10 16 0.00 0.00
6:59 pm 18:59 Mostly Sunny 83 28.3 70 21.1 65 65 SW 6 9 30.12 1020 10 16 0.00 0.00
7:59 pm 19:59 Partly Cloudy 79 26.1 70 21.1 74 74 SSW 3 6 30.14 1021 10 16 0.00 0.00
8:59 pm 20:59 Mostly Clear 79 26.1 72 22.2 79 79 S 6 9 30.14 1021 10 16 0.00 0.00
9:59 pm 21:59 Mostly Cloudy 77 25 69 20.6 77 77 S 7 11 30.14 1021 10 16 0.00 0.00
10:59 pm 22:59 Mostly Cloudy 76 24.4 70 21.1 82 82 SSW 6 9 30.15 1021 10 16 0.00 0.00
11:59 pm 23:59 Mostly Cloudy 76 24.4 70 21.1 82 82 S 9 15 30.12 1020 10 16 0.00 0.00

Powered by AerisWeather